Wind_Speed
8 7 6 6 6 5 4 4 4 5 6 7 7 8 8 8 8 10 10 10 10 9 9 9 9 9 8 7 7 7 8 8 8 8 9 8 8 8 8 8 9 8 9 9 8 8 8 7 6
8 8 7 7 7 6 6 6 6 6 6 7 8 8 8 9 9 10 10 9 9 9 9 9 9 9 9 8 8 8 8 9 9 9 10 10 9 9 9 10 10 10 9 9 9 9 9 8 7
9 9 9 8 8 8 7 7 6 6 6 7 7 8 8 9 10 10 10 10 9 9 9 10 10 10 9 9 9 9 9 9 9 10 10 11 10 10 10 11 11 10 10 9 9 9 9 8 8
11 11 10 9 9 9 8 8 8 6 7 7 7 8 8 9 10 10 11 11 10 10 9 10 11 11 10 10 10 10 10 10 10 10 11 11 11 11 11 11 11 11 10 10 10 9 9 9 9
12 12 11 11 10 10 10 10 10 9 8 8 8 8 8 9 10 10 11 11 11 11 11 11 11 11 11 11 11 11 10 11 11 11 11 11 10 11 11 11 11 11 11 10 10 10 10 10 10
12 12 12 12 11 11 12 12 11 10 10 10 9 9 9 10 11 11 11 12 12 12 12 12 12 11 11 12 12 12 11 11 11 11 12 12 11 11 11 11 11 11 11 11 11 11 11 10 11
14 14 14 13 13 12 13 13 12 11 11 11 10 9 10 11 12 13 13 14 14 14 14 13 12 12 12 11 12 12 11 11 11 11 12 12 11 11 11 11 11 11 11 11 11 11 11 11 12
15 15 15 15 14 13 13 13 14 13 12 12 11 10 11 12 13 14 15 15 15 15 15 14 12 12 11 10 10 10 11 11 11 11 12 12 12 11 11 11 11 11 12 12 12 12 12 12 12
16 16 16 15 15 14 14 15 15 14 13 12 11 11 12 13 14 14 15 15 14 14 15 13 12 11 10 10 10 10 11 11 11 11 11 12 12 12 11 11 11 11 12 12 13 14 13 13 13
16 16 15 16 16 15 15 15 15 15 12 12 13 12 12 13 13 14 14 13 13 14 14 13 12 11 10 10 10 10 11 12 12 12 11 11 12 12 12 12 12 12 12 13 13 13 13 13 13
17 16 15 16 17 16 15 15 16 15 13 13 12 11 12 13 13 13 14 13 13 14 14 13 12 12 10 10 10 10 10 11 12 12 11 11 12 13 13 13 13 12 12 13 14 13 12 12 13
17 16 16 16 17 17 16 15 16 15 14 14 13 12 13 13 13 12 12 12 12 13 13 12 12 12 10 10 10 10 10 10 11 11 11 11 12 13 13 13 13 13 13 13 13 14 13 12 13
17 16 16 16 17 17 17 16 16 16 15 14 13 12 13 13 13 11 11 11 11 13 12 11 12 11 10 10 10 10 10 10 10 10 11 11 12 13 13 13 14 13 13 13 13 14 13 13 14
18 18 17 16 16 16 17 16 16 15 16 15 14 14 13 14 13 11 11 11 11 12 11 10 10 10 10 10 11 10 10 9 8 9 10 11 12 12 12 12 13 13 14 14 14 15 14 14 14
19 19 18 17 16 16 17 16 15 15 15 13 13 13 12 12 12 12 12 11 11 11 10 9 9 9 9 10 10 10 10 9 10 10 11 11 11 11 12 12 13 14 14 14 14 14 15 15 15
19 19 18 17 17 16 17 15 15 15 15 13 13 13 13 12 12 12 11 12 12 11 10 9 8 9 9 9 10 10 10 10 10 11 11 11 11 11 11 12 13 13 14 14 14 14 15 15 15
18 19 18 18 17 17 17 15 14 15 15 15 15 14 13 13 12 12 12 12 11 10 10 9 9 9 9 9 9 9 9 10 10 10 11 11 10 10 11 12 12 13 13 13 13 13 14 14 14
18 18 17 18 17 17 17 16 14 15 16 15 14 13 13 13 12 12 12 12 11 11 11 10 10 10 9 9 9 9 9 10 10 11 11 10 11 11 11 11 12 13 13 13 12 13 13 14 14
18 18 18 17 18 18 17 16 15 15 15 15 14 14 14 13 13 13 12 12 12 12 13 12 11 11 10 10 10 10 10 10 10 10 11 10 11 11 12 13 13 13 13 12 12 13 14 14 15
19 19 19 19 18 19 19 18 17 16 16 15 15 16 15 14 14 13 12 13 13 13 13 13 12 12 10 10 11 11 12 11 11 11 12 11 11 11 12 13 13 13 13 13 13 13 14 15 15
19 19 19 19 19 20 20 18 17 17 17 17 17 16 15 14 13 12 13 13 13 13 14 15 13 12 11 11 11 12 12 12 12 12 12 11 11 12 13 13 14 14 14 14 13 14 15 15 15
18 18 18 18 19 19 19 18 16 17 17 17 16 15 14 14 13 13 14 14 13 13 13 13 11 11 11 11 11 11 11 11 11 11 11 11 12 12 12 13 13 13 14 15 14 14 14 14 15
16 17 18 18 19 19 19 19 16 17 17 16 16 15 14 14 14 14 14 13 13 12 12 11 10 10 10 10 11 11 11 10 11 12 12 12 11 12 12 13 14 14 14 14 14 14 14 14 15
16 18 18 19 19 19 17 19 15 16 16 16 15 15 14 13 14 15 14 12 12 12 11 10 10 10 10 11 11 11 11 11 11 11 12 11 12 12 13 13 12 13 13 13 14 14 13 13 14
17 18 19 19 19 18 17 18 15 15 16 15 15 15 15 14 14 14 12 11 11 11 10 10 10 10 10 11 11 12 12 12 11 11 11 12 12 13 13 12 12 13 13 13 13 14 14 14 14
17 19 20 20 18 17 17 17 15 14 14 15 15 15 14 14 13 13 13 12 11 11 10 10 10 10 10 11 11 11 11 11 11 11 11 11 12 12 12 12 12 13 13 13 13 14 14 14 14
18 19 20 20 19 18 17 17 15 15 16 15 15 14 14 14 13 13 13 12 11 10 10 10 10 11 11 11 11 11 11 10 11 11 11 12 12 12 12 11 12 13 13 13 13 13 13 13 13
18 18 18 20 20 19 18 17 16 16 16 15 15 14 14 14 14 13 13 13 12 11 10 10 11 11 11 11 11 11 11 11 11 11 11 11 11 12 11 11 12 13 13 13 13 13 14 14 15
18 17 18 18 19 19 18 16 14 15 15 15 15 15 14 14 15 15 14 13 12 11 11 12 12 12 11 11 12 12 12 13 12 12 12 12 12 12 12 11 11 11 12 12 13 14 15 15 15
18 18 18 18 19 19 17 15 14 15 13 13 14 14 14 15 15 15 14 14 14 13 12 13 13 13 12 11 12 12 12 12 12 13 13 13 13 13 12 12 12 12 12 12 13 14 14 15 15
Wind_Direction
223 224 228 234 239 248 266 281 298 312 329 331 332 337 342 342 341 339 337 334 329 326 323 318 314 315 314 310 306 304 302 304 304 303 302 302 300 296 297 295 293 293 289 288 288 287 284 281 277
226 229 233 239 243 252 268 284 296 311 323 322 326 331 332 334 334 337 335 330 326 324 322 319 315 314 314 312 307 304 300 297 295 295 294 293 292 291 293 292 287 286 283 281 281 281 279 274 272
229 231 236 242 249 258 273 285 291 301 307 317 329 331 330 330 336 335 329 322 322 323 321 318 316 315 312 307 303 300 298 293 292 292 289 287 287 287 288 288 285 283 278 278 276 277 276 270 268
234 235 238 246 252 258 266 277 283 288 296 304 318 331 331 329 334 330 326 322 319 318 317 316 315 314 308 304 299 296 294 291 290 290 289 287 286 286 285 283 281 281 277 274 273 272 269 269 265
240 238 241 246 251 259 266 274 276 283 288 295 306 319 326 324 323 323 322 320 318 317 315 312 312 312 309 303 299 293 290 289 288 288 287 284 282 282 282 280 277 276 273 270 269 269 270 269 265
242 243 243 244 248 259 268 272 276 280 278 285 294 306 315 315 319 320 320 317 315 315 315 317 313 310 307 301 299 294 290 289 288 287 285 282 279 278 278 278 276 273 270 265 265 269 268 270 270
245 244 243 247 252 258 268 272 273 274 276 279 287 301 310 316 321 321 318 314 313 314 314 315 313 311 304 296 295 295 291 290 287 285 282 278 276 276 276 273 273 272 268 264 264 266 266 268 269
248 245 246 250 255 260 267 272 273 273 277 280 289 303 310 318 318 318 320 316 314 313 310 310 312 312 306 298 293 291 290 288 288 286 282 279 273 273 272 269 270 272 269 267 265 264 266 267 268
248 246 249 253 256 259 265 270 272 276 280 284 292 307 313 315 314 315 318 319 315 312 310 305 307 308 306 302 291 286 287 286 287 289 281 276 269 269 268 268 269 273 273 270 266 264 266 267 268
249 248 252 256 260 264 267 269 271 276 278 285 294 305 309 312 313 318 318 313 309 313 312 308 308 309 303 299 295 285 284 285 286 287 284 275 268 267 266 268 269 271 272 272 269 265 268 268 269
250 251 252 254 260 266 267 269 270 275 278 282 290 299 307 309 312 317 316 312 310 313 312 310 312 311 304 299 297 289 284 283 283 283 283 277 269 266 266 268 269 270 271 273 272 267 269 271 271
249 250 253 255 261 265 266 269 270 272 279 282 289 295 303 307 315 315 316 310 311 312 312 309 309 309 303 295 295 291 287 284 283 283 278 274 271 266 269 271 273 272 273 274 272 265 268 270 271
249 250 252 254 260 264 265 268 268 270 273 279 285 296 302 305 318 318 317 312 313 314 313 311 310 308 303 294 291 289 287 289 286 280 278 275 274 273 271 269 274 272 276 276 274 267 269 270 269
249 250 253 256 263 268 268 266 266 269 272 277 284 293 299 302 308 313 316 311 311 311 311 311 312 311 305 296 291 289 289 288 286 282 275 273 276 275 271 269 271 271 273 274 272 270 266 267 267
250 252 254 258 263 265 267 265 267 271 276 281 283 288 294 297 302 306 309 308 307 309 314 309 309 312 308 298 294 292 288 286 285 287 282 276 273 276 274 270 272 271 270 271 272 271 269 265 265
253 253 255 259 262 264 266 267 267 269 272 280 286 287 289 293 299 306 306 305 304 309 313 310 311 313 309 303 299 296 288 290 289 288 286 283 278 275 276 274 273 272 271 272 275 273 270 268 269
255 254 256 258 262 263 263 266 266 265 270 274 280 285 287 290 296 301 303 303 305 308 307 303 304 308 305 303 302 298 289 288 290 289 287 283 280 276 276 278 273 273 274 272 272 269 268 271 272
258 256 256 258 258 260 262 264 264 265 269 274 276 280 282 287 289 293 296 301 302 303 302 296 297 301 297 298 303 299 293 290 289 287 287 283 277 272 277 281 276 275 275 274 271 268 268 272 275
259 258 258 256 255 257 259 262 265 267 268 272 277 278 281 284 285 287 290 297 299 300 300 293 294 294 293 294 294 293 289 287 287 287 286 282 278 274 275 277 276 273 272 274 271 271 271 273 275
259 260 261 259 256 257 258 260 264 266 267 270 274 277 280 277 277 284 287 291 293 296 296 290 288 286 286 288 287 289 287 284 284 284 284 283 283 279 278 277 275 270 269 270 272 272 274 274 274
258 262 262 260 257 258 261 261 261 264 265 266 271 274 276 275 275 280 286 288 287 290 291 292 285 282 279 283 290 290 288 283 285 288 288 288 288 288 280 278 274 270 270 275 276 274 275 275 274
258 261 263 260 259 259 262 263 260 263 267 270 273 275 277 274 274 282 286 286 289 288 287 290 283 281 279 282 288 290 285 282 283 288 291 288 291 290 285 280 275 273 275 278 281 279 278 278 277
257 258 262 260 260 262 263 266 263 262 265 270 273 272 273 273 273 276 280 279 282 287 288 286 280 281 281 286 288 288 288 285 283 287 287 288 290 289 286 281 276 273 276 279 278 277 278 278 278
257 257 259 260 261 262 264 267 265 265 268 271 271 270 269 272 273 273 274 272 272 278 283 278 277 278 280 283 287 289 288 287 286 288 289 288 286 284 283 280 276 273 276 277 276 277 277 280 282
257 258 260 262 262 265 265 267 266 268 270 270 268 268 266 270 271 272 267 266 271 274 273 271 275 277 278 281 284 286 286 287 286 289 292 291 289 286 283 280 276 278 276 278 276 276 277 279 279
258 261 262 264 263 264 265 269 269 269 269 270 268 266 264 265 266 267 265 266 268 268 269 269 271 274 276 278 280 282 284 287 288 289 292 293 289 286 286 281 275 276 279 279 277 276 279 278 280
260 260 262 262 265 266 267 268 266 265 268 270 269 263 260 260 261 263 265 265 263 265 267 269 270 271 275 275 278 280 279 285 287 289 291 295 297 293 287 284 280 280 279 276 277 278 281 282 282
261 263 262 265 267 270 270 271 270 267 271 272 269 264 260 262 265 263 266 262 262 263 266 271 272 272 275 276 276 278 278 279 283 285 289 292 296 297 293 289 284 283 281 280 281 283 285 285 285
259 259 263 267 267 271 273 273 275 275 270 264 262 261 259 263 268 267 265 261 261 263 268 269 272 275 278 281 280 278 277 275 279 282 286 289 293 295 295 296 293 290 287 283 284 284 289 291 291
258 257 259 264 269 272 272 272 271 272 269 262 261 258 262 265 267 266 266 267 264 265 269 274 273 278 283 283 281 280 276 275 276 280 284 287 289 289 292 290 291 292 288 287 291 288 290 292 293
Height
5874 5875 5876 5878 5878 5878 5878 5878 5877 5877 5877 5876 5875 5875 5874 5874 5874 5876 5874 5872 5871 5871 5870 5869 5869 5868 5867 5867 5867 5867 5867 5867 5867 5867 5867 5868 5868 5868 5869 5869 5869 5869 5870 5870 5871 5871 5872 5872 5873
5874 5875 5876 5877 5877 5877 5878 5877 5877 5876 5876 5875 5874 5874 5874 5873 5873 5872 5871 5870 5870 5869 5869 5868 5867 5867 5866 5865 5865 5865 5865 5865 5865 5865 5865 5866 5866 5866 5867 5867 5867 5867 5868 5868 5869 5869 5870 5871 5871
5873 5874 5876 5876 5876 5876 5876 5876 5875 5875 5875 5874 5874 5873 5873 5872 5871 5871 5870 5869 5869 5868 5867 5867 5866 5865 5864 5864 5863 5863 5863 5863 5863 5863 5863 5864 5864 5864 5865 5865 5865 5866 5866 5867 5867 5868 5868 5869 5870
5872 5873 5874 5875 5874 5875 5875 5874 5874 5874 5874 5873 5873 5872 5871 5871 5870 5870 5869 5868 5867 5866 5866 5865 5864 5863 5862 5862 5861 5861 5861 5861 5861 5861 5861 5861 5862 5862 5862 5863 5863 5864 5864 5865 5865 5866 5867 5867 5868
5870 5871 5872 5873 5873 5873 5873 5872 5872 5873 5872 5872 5872 5871 5870 5870 5869 5869 5868 5867 5866 5865 5864 5863 5862 5861 5860 5860 5859 5858 5858 5858 5858 5858 5859 5859 5859 5860 5860 5860 5861 5861 5862 5863 5863 5864 5865 5865 5866
5869 5869 5870 5871 5871 5871 5871 5870 5870 5871 5871 5870 5870 5869 5869 5868 5868 5867 5866 5865 5864 5863 5861 5860 5859 5858 5857 5857 5856 5856 5856 5856 5855 5856 5856 5856 5857 5857 5857 5858 5858 5859 5860 5860 5861 5862 5862 5863 5864
5867 5868 5868 5869 5869 5869 5869 5868 5867 5867 5868 5868 5868 5867 5867 5866 5866 5865 5864 5862 5861 5859 5858 5857 5856 5855 5854 5853 5853 5853 5853 5853 5853 5853 5853 5854 5854 5854 5854 5855 5856 5856 5857 5858 5859 5859 5860 5861 5861
5864 5866 5866 5867 5867 5867 5867 5865 5865 5865 5866 5866 5866 5865 5864 5864 5863 5862 5861 5859 5858 5856 5855 5855 5854 5852 5851 5851 5851 5851 5850 5850 5850 5850 5850 5851 5851 5851 5852 5852 5853 5854 5855 5855 5856 5857 5857 5858 5858
5862 5864 5864 5864 5865 5865 5864 5864 5863 5864 5864 5864 5863 5863 5862 5862 5861 5860 5858 5856 5855 5853 5852 5851 5851 5850 5849 5848 5848 5848 5848 5848 5847 5848 5848 5848 5849 5849 5849 5850 5851 5851 5852 5853 5853 5854 5854 5855 5855
5859 5860 5862 5862 5862 5862 5862 5862 5862 5862 5862 5862 5861 5861 5860 5859 5858 5857 5855 5854 5852 5851 5850 5848 5847 5847 5846 5846 5846 5846 5845 5845 5845 5845 5845 5845 5845 5846 5847 5847 5848 5849 5849 5850 5850 5851 5851 5852 5852
5856 5858 5859 5859 5858 5858 5859 5859 5859 5859 5860 5859 5859 5859 5858 5857 5856 5854 5853 5851 5850 5849 5847 5845 5844 5844 5843 5843 5843 5843 5843 5843 5842 5842 5842 5842 5843 5844 5844 5845 5845 5846 5846 5847 5847 5848 5848 5848 5849
5853 5854 5855 5855 5855 5855 5856 5856 5856 5857 5857 5857 5856 5856 5855 5854 5853 5851 5850 5848 5847 5846 5844 5843 5842 5841 5841 5841 5841 5841 5840 5840 5840 5839 5839 5839 5840 5841 5841 5842 5842 5843 5843 5844 5844 5845 5845 5845 5846
5850 5851 5851 5852 5852 5852 5853 5853 5854 5854 5854 5854 5853 5853 5853 5852 5850 5848 5847 5845 5844 5843 5842 5840 5839 5838 5838 5838 5838 5838 5838 5837 5837 5837 5837 5837 5837 5838 5838 5838 5839 5840 5840 5840 5841 5841 5842 5842 5843
5846 5847 5848 5848 5849 5849 5849 5850 5851 5851 5851 5851 5850 5850 5850 5849 5848 5846 5845 5843 5842 5840 5839 5838 5837 5836 5836 5836 5836 5836 5835 5835 5834 5834 5834 5834 5834 5835 5835 5835 5836 5836 5837 5837 5837 5838 5838 5838 5839
5843 5844 5845 5845 5846 5846 5846 5847 5848 5848 5847 5847 5847 5848 5847 5846 5846 5844 5843 5841 5840 5838 5837 5836 5835 5835 5834 5834 5834 5834 5833 5832 5832 5832 5832 5832 5832 5832 5832 5832 5832 5833 5833 5833 5833 5834 5834 5834 5835
5839 5840 5841 5842 5842 5842 5843 5844 5845 5844 5844 5844 5844 5845 5844 5844 5843 5842 5841 5839 5838 5836 5835 5834 5833 5833 5832 5832 5832 5831 5831 5830 5830 5830 5829 5829 5829 5829 5829 5829 5829 5829 5830 5830 5830 5830 5830 5830 5831
5836 5836 5837 5838 5838 5838 5839 5840 5841 5841 5841 5841 5841 5842 5842 5842 5841 5840 5838 5837 5836 5834 5833 5832 5831 5831 5830 5830 5829 5829 5829 5828 5828 5827 5827 5826 5826 5826 5825 5825 5825 5826 5826 5826 5826 5826 5826 5827 5827
5832 5833 5834 5834 5835 5835 5835 5836 5837 5837 5838 5838 5838 5839 5839 5838 5838 5837 5836 5835 5834 5833 5832 5830 5829 5828 5828 5827 5827 5827 5827 5826 5825 5825 5824 5823 5823 5822 5822 5822 5822 5822 5822 5822 5822 5823 5822 5823 5823
5829 5829 5830 5831 5831 5831 5832 5833 5834 5834 5834 5834 5835 5835 5835 5835 5835 5834 5833 5832 5831 5830 5829 5828 5827 5826 5826 5825 5825 5825 5824 5823 5823 5822 5821 5820 5820 5819 5819 5819 5819 5819 5819 5819 5819 5819 5819 5819 5819
5825 5826 5827 5827 5828 5828 5828 5829 5830 5830 5831 5831 5832 5832 5832 5831 5831 5831 5830 5830 5829 5828 5826 5826 5825 5824 5823 5823 5823 5822 5822 5821 5820 5819 5818 5817 5816 5816 5816 5816 5816 5816 5816 5816 5816 5815 5815 5815 5815
5822 5823 5823 5823 5824 5824 5825 5826 5827 5827 5827 5828 5828 5828 5827 5827 5827 5827 5827 5826 5826 5825 5823 5823 5822 5821 5820 5820 5820 5819 5818 5818 5817 5816 5815 5815 5814 5813 5813 5813 5813 5813 5813 5812 5812 5812 5812 5811 5811
5818 5819 5819 5819 5820 5820 5821 5821 5823 5823 5823 5824 5824 5824 5824 5824 5824 5824 5823 5823 5822 5821 5820 5819 5818 5818 5818 5817 5817 5816 5815 5814 5814 5814 5813 5812 5811 5810 5810 5810 5809 5809 5809 5809 5808 5808 5807 5807 5807
5815 5816 5816 5816 5816 5816 5817 5817 5820 5819 5820 5820 5821 5821 5821 5820 5820 5820 5820 5819 5818 5818 5817 5816 5815 5815 5815 5815 5814 5813 5813 5812 5812 5811 5810 5809 5808 5808 5807 5806 5806 5806 5805 5805 5804 5804 5803 5803 5803
5811 5812 5812 5812 5812 5813 5814 5814 5815 5816 5816 5816 5817 5817 5817 5817 5816 5816 5816 5815 5815 5814 5814 5813 5813 5812 5812 5812 5811 5810 5810 5809 5808 5808 5807 5806 5805 5805 5804 5803 5802 5802 5801 5801 5801 5800 5800 5799 5798
5808 5808 5808 5808 5808 5810 5811 5810 5812 5812 5812 5812 5813 5813 5813 5813 5812 5812 5811 5812 5812 5811 5811 5810 5810 5810 5809 5809 5808 5808 5807 5806 5805 5805 5804 5803 5802 5801 5800 5799 5799 5799 5798 5798 5797 5797 5796 5795 5794
5804 5804 5805 5805 5805 5806 5806 5806 5809 5808 5808 5808 5809 5809 5809 5809 5809 5808 5808 5808 5808 5808 5808 5807 5807 5807 5806 5806 5805 5804 5804 5803 5802 5802 5801 5800 5799 5798 5797 5796 5796 5796 5795 5794 5794 5793 5792 5791 5790
5800 5800 5801 5801 5801 5802 5802 5804 5804 5804 5804 5805 5805 5806 5806 5806 5806 5805 5805 5805 5805 5804 5804 5804 5804 5803 5803 5802 5801 5801 5800 5800 5799 5799 5798 5797 5796 5795 5794 5793 5793 5792 5792 5791 5790 5790 5789 5788 5787
5796 5796 5797 5797 5797 5797 5798 5799 5801 5800 5801 5801 5801 5802 5802 5802 5802 5802 5802 5802 5802 5801 5801 5801 5800 5800 5799 5798 5798 5798 5797 5797 5797 5796 5795 5794 5794 5793 5792 5791 5790 5790 5789 5789 5788 5787 5786 5785 5784
5792 5793 5792 5793 5793 5793 5794 5797 5797 5797 5797 5797 5798 5798 5799 5799 5799 5799 5799 5799 5799 5798 5798 5797 5796 5796 5795 5795 5795 5795 5794 5794 5794 5793 5793 5792 5791 5790 5789 5788 5787 5787 5786 5785 5784 5783 5782 5781 5780
5788 5789 5789 5790 5790 5790 5790 5795 5793 5793 5793 5793 5794 5795 5795 5795 5795 5795 5795 5795 5795 5795 5794 5794 5793 5793 5792 5792 5791 5791 5791 5791 5791 5790 5790 5789 5788 5787 5786 5786 5785 5784 5783 5782 5781 5780 5778 5777 5776